Regional Weather Roundup
Issued by NWS Boston, MA

Current Version | Previous Version | Text Only | Print | Product List | Glossary Off
Versions: 1 2 3 4 5 6 7 8 9 10 11 12 13 14 15 16 17 18 19 20 21 22 23 24 25 26 27

000
ASUS41 KBOX 241610
RWRBOX

REGIONAL WEATHER ROUNDUP
NATIONAL WEATHER SERVICE TAUNTON MA
1100 AM EST SAT FEB 24 2018

NOTE:  "FAIR" INDICATES FEW OR NO CLOUDS BELOW 12,000 FEET WITH NO
SIGNIFICANT WEATHER AND/OR OBSTRUCTIONS TO VISIBILITY.

MAZALL-241700-
EASTERN MASSACHUSETTS

CITY           SKY/WX    TMP DP  RH WIND       PRES   REMARKS
BOSTON         FAIR      53  38  56 NW13      30.08F
BEVERLY        FAIR      53  37  54 NW14      30.07F
LAWRENCE       FAIR      53  37  54 NW16G22   30.09F
BEDFORD        FAIR      53  37  54 W12       30.08R
BLUE HILL        N/A    N/A N/A N/A W13G20    30.07R
NORWOOD        FAIR      55  38  52 W12       30.09S
MARSHFIELD     FAIR      55  39  54 VRB5G13   30.08S
PLYMOUTH       FAIR      55  39  54 W9        30.09S
TAUNTON        FAIR      55  38  52 W6        30.09S
NEW BEDFORD    FAIR      54  41  61 NW9       30.09S
$$

MAZALL-241700-
CAPE COD AND THE ISLANDS

CITY           SKY/WX    TMP DP  RH WIND       PRES   REMARKS
FALMOUTH       FAIR      52  41  66 NW9       30.10
HYANNIS        FAIR      53  41  63 NW9G18    30.08S
CHATHAM        FAIR      53  41  63 NW6       30.11S
PROVINCETOWN   FAIR      48  40  73 NW9       30.10F
NANTUCKET      CLOUDY    43  43 100 W7        30.11S
MARTHAS VNYRD  FAIR      46  45  96 VRB6      30.10S
$$

MAZALL-241700-
CENTRAL AND WESTERN MASSACHUSETTS

CITY           SKY/WX    TMP DP  RH WIND       PRES   REMARKS
WORCESTER      FAIR      48  34  58 W14       30.09R
FITCHBURG      FAIR      55  38  52 W15G23    30.11R
ORANGE         FAIR      48  34  58 VRB7G17   30.13R
SPRINGFIELD    PTSUNNY   53  34  49 W9        30.11S
WESTFIELD      FAIR      50  36  58 NW14      30.13R
NORTH ADAMS    FAIR      44  33  65 W22G30    30.16R
PITTSFIELD     CLOUDY    41  32  70 W15G21    30.14R
$$

RIZALL-241700-
RHODE ISLAND

CITY           SKY/WX    TMP DP  RH WIND       PRES   REMARKS
PROVIDENCE     FAIR      57  39  51 NW14      30.11S
NEWPORT        FAIR      52  41  66 NW7       30.10S
BLOCK ISLAND   FAIR      46  41  82 W10       30.13S
SMITHFIELD     FAIR      53  36  52 MISG      30.10S
WESTERLY       FAIR      48  44  86 SW7       30.13S
$$

CTZALL-241700-
CONNECTICUT

CITY           SKY/WX    TMP DP  RH WIND       PRES   REMARKS
BRADLEY INTL   PTSUNNY   53  36  52 NW15      30.14R
HARTFORD       FAIR      53  37  54 N12       30.14S
BRIDGEPORT     FAIR      49  42  77 SW9       30.14F
DANBURY        FAIR      51  41  68 NW7       30.16S
GROTON         FAIR      49  42  77 SW8       30.11F
NEW HAVEN      FAIR      53  43  68 NW12      30.13F
CHESTER        FAIR      55  39  54 N10       30.13R
MERIDEN        FAIR      54  38  54 NW10      30.14S
WILLIMANTIC    FAIR      53  37  54 NW12G22   30.13F
OXFORD         FAIR      51  40  65 NW9       30.14S
$$

MEZ002-015-021-024-NHZ003-005-008-011-012-014-VTZ005-008-241700-
NORTHERN NEW ENGLAND

CITY           SKY/WX    TMP DP  RH WIND       PRES   REMARKS
PORTLAND ME    FAIR      48  34  58 N8G21     30.05S
BANGOR ME      PTSUNNY   44  30  57 NW10      30.00S
CONCORD NH     PTSUNNY   48  34  58 NW12G17   30.09R
MANCHESTER NH  PTSUNNY   51  32  48 NW12      30.07S
NASHUA NH      FAIR      51  35  54 NW13      30.10R
PORTSMOUTH NH  PTSUNNY   50  35  55 W20G25    30.05S
JAFFREY NH     FAIR      47  36  65 W13       30.10R
KEENE NH       FAIR      49  36  61 W8        30.12R
BURLINGTON VT  CLOUDY    41  30  65 NW6       30.16R
MT. WASHINGTON FOG       16  16 100 W68G77      N/A  VSB 0   WCI -11
$$

NYZ052-076-241700-
EASTERN NEW YORK

CITY           SKY/WX    TMP DP  RH WIND       PRES   REMARKS
ALBANY         CLOUDY    44  31  60 NW21G31   30.20R
NEW YORK CITY  PTSUNNY   53  40  61 NW5       30.15S
$$

ANZALL-241700-
MARINE OBSERVATIONS

STATION/POSITION TIME  TEMP    WIND        PRES    VSBY  WAVE
                       AIR SEA DIR/SP/G                  HT/PER
                 (UTC) (F)     (DEG/KT/KT) (MB)    (MI)  (FT/S)
BOSTON BUOY      1550   44 40  290/  8/ 10 1018.2F         1/ 6
BUZZARDS BAY     1500   36     260/ 13/ 14 1019.9F
NANTUCKET SOUND  1450   39 40  240/  8/ 12 1019.7          1/ 3
MASS BAY-STELLWA 1504   43 41              1017.7S         1/ 5
ISLE OF SHOALS   1600   47     300/ 22/ 23 1017.7R
S OF BLOCK IS    1543      41                N/A           4/ 6
$$

......................KEY.........................
  SKY/WX - SKY CONDITION/PRESENT WEATHER
  TMP    - TEMPERATURE IN FAHRENHEIT
  DWPT   - DEWPOINT IN FAHRENHEIT
  RH     - RELATIVE HUMIDITY IN PERCENT
  WIND   - DIRECTION AND SPEED IN MPH
  PRES   - MEAN SEA LEVEL PRESSURE IN INCHES OF HG
  WCI    - WIND CHILL INDEX
  VSB    - VISIBILITY IN MILES
  HX     - HEAT INDEX
  TC     - TEMPERATURE IN CELSIUS
  VRB    - VARIABLE WIND DIRECTION
  N/A    - NOT AVAILABLE




USA.gov is the U.S. government's official web portal to all federal, state and local government web resources and services.